Index of /20260414/WXO-DD/model_gdps/15km/12/010
Name Last modified Size Description
Parent Directory -
20260414T12Z_MSC_GDPS_AirTemp_AGL-120m_LatLon0.15_PT010H.grib2 2026-04-14 15:56 912K
20260414T12Z_MSC_GDPS_AirTemp_AGL-2m_LatLon0.15_PT010H.grib2 2026-04-14 15:56 1.0M
20260414T12Z_MSC_GDPS_AirTemp_AGL-40m_LatLon0.15_PT010H.grib2 2026-04-14 15:56 936K
20260414T12Z_MSC_GDPS_AirTemp_AGL-80m_LatLon0.15_PT010H.grib2 2026-04-14 15:56 924K
20260414T12Z_MSC_GDPS_Albedo_Sfc_LatLon0.15_PT010H.grib2 2026-04-14 15:56 243K
20260414T12Z_MSC_GDPS_ConvectivePrecip-Accum_Sfc_LatLon0.15_PT010H.grib2 2026-04-14 15:56 1.8M
20260414T12Z_MSC_GDPS_DewPointDepression_AGL-2m_LatLon0.15_PT010H.grib2 2026-04-14 15:56 756K
20260414T12Z_MSC_GDPS_DewPoint_AGL-2m_LatLon0.15_PT010H.grib2 2026-04-14 15:56 609K
20260414T12Z_MSC_GDPS_DownwardLongwaveRadiationFlux-Accum_Sfc_LatLon0.15_PT010H.grib2 2026-04-14 15:56 966K
20260414T12Z_MSC_GDPS_DownwardShortwaveRadiationFlux-Accum_Sfc_LatLon0.15_PT010H.grib2 2026-04-14 15:56 812K
20260414T12Z_MSC_GDPS_FreezingRain-Accum1h_Sfc_LatLon0.15_PT010H.grib2 2026-04-14 15:56 23K
20260414T12Z_MSC_GDPS_FreezingRain-Accum_Sfc_LatLon0.15_PT010H.grib2 2026-04-14 15:56 86K
20260414T12Z_MSC_GDPS_IcePellets-Accum1h_Sfc_LatLon0.15_PT010H.grib2 2026-04-14 15:56 5.8K
20260414T12Z_MSC_GDPS_IcePellets-Accum_Sfc_LatLon0.15_PT010H.grib2 2026-04-14 15:56 19K
20260414T12Z_MSC_GDPS_LatentHeatNetFlux_Sfc_LatLon0.15_PT010H.grib2 2026-04-14 15:56 634K
20260414T12Z_MSC_GDPS_NetLongwaveRadiationFlux-Accum_Sfc_LatLon0.15_PT010H.grib2 2026-04-14 15:56 1.2M
20260414T12Z_MSC_GDPS_NetShortwaveRadiationFlux-Accum_Sfc_LatLon0.15_PT010H.grib2 2026-04-14 15:56 771K
20260414T12Z_MSC_GDPS_O3MixingRatio_LatLon0.15_PT010H.grib2 2026-04-14 16:54 2.1M
20260414T12Z_MSC_GDPS_O3_EAtm_LatLon0.15_PT010H.grib2 2026-04-14 16:54 2.1M
20260414T12Z_MSC_GDPS_PlanetaryBoundaryLayerHeight_Sfc_LatLon0.15_PT010H.grib2 2026-04-14 15:56 2.4M
20260414T12Z_MSC_GDPS_Precip-Accum1h_Sfc_LatLon0.15_PT010H.grib2 2026-04-14 15:56 3.1M
20260414T12Z_MSC_GDPS_Precip-Accum_Sfc_LatLon0.15_PT010H.grib2 2026-04-14 15:56 3.9M
20260414T12Z_MSC_GDPS_PrecipRate_Sfc_LatLon0.15_PT010H.grib2 2026-04-14 15:56 2.7M
20260414T12Z_MSC_GDPS_Pressure_MSL_LatLon0.15_PT010H.grib2 2026-04-14 15:56 821K
20260414T12Z_MSC_GDPS_Pressure_Sfc_LatLon0.15_PT010H.grib2 2026-04-14 15:56 1.1M
20260414T12Z_MSC_GDPS_RadiativeTemp_Sfc_LatLon0.15_PT010H.grib2 2026-04-14 15:56 659K
20260414T12Z_MSC_GDPS_Rain-Accum1h_Sfc_LatLon0.15_PT010H.grib2 2026-04-14 15:56 1.6M
20260414T12Z_MSC_GDPS_Rain-Accum_Sfc_LatLon0.15_PT010H.grib2 2026-04-14 15:56 2.7M
20260414T12Z_MSC_GDPS_RelativeHumidity_AGL-2m_LatLon0.15_PT010H.grib2 2026-04-14 15:56 1.0M
20260414T12Z_MSC_GDPS_Runoff-Accum_Sfc_LatLon0.15_PT010H.grib2 2026-04-14 15:56 63K
20260414T12Z_MSC_GDPS_SensibleHeatNetFlux_Sfc_LatLon0.15_PT010H.grib2 2026-04-14 15:56 429K
20260414T12Z_MSC_GDPS_Snow-Accum1h_Sfc_LatLon0.15_PT010H.grib2 2026-04-14 15:56 765K
20260414T12Z_MSC_GDPS_Snow-Accum_Sfc_LatLon0.15_PT010H.grib2 2026-04-14 15:56 1.6M
20260414T12Z_MSC_GDPS_SnowDepth_Sfc_LatLon0.15_PT010H.grib2 2026-04-14 15:56 1.8M
20260414T12Z_MSC_GDPS_SoilTemp_DBS-0to10cm_LatLon0.15_PT010H.grib2 2026-04-14 15:56 496K
20260414T12Z_MSC_GDPS_SoilTemp_Sfc_LatLon0.15_PT010H.grib2 2026-04-14 15:56 575K
20260414T12Z_MSC_GDPS_SoilVolumetricWaterContent_DBS-0to10cm_LatLon0.15_PT010H.grib2 2026-04-14 15:56 552K
20260414T12Z_MSC_GDPS_SoilVolumetricWaterContent_DBS-0to1cm_LatLon0.15_PT010H.grib2 2026-04-14 15:56 646K
20260414T12Z_MSC_GDPS_SpecificHumidity_AGL-120m_LatLon0.15_PT010H.grib2 2026-04-14 15:56 1.1M
20260414T12Z_MSC_GDPS_SpecificHumidity_AGL-2m_LatLon0.15_PT010H.grib2 2026-04-14 15:56 1.2M
20260414T12Z_MSC_GDPS_SpecificHumidity_AGL-40m_LatLon0.15_PT010H.grib2 2026-04-14 15:56 1.1M
20260414T12Z_MSC_GDPS_SpecificHumidity_AGL-80m_LatLon0.15_PT010H.grib2 2026-04-14 15:56 1.1M
20260414T12Z_MSC_GDPS_SpecificHumidity_Sfc_LatLon0.15_PT010H.grib2 2026-04-14 15:56 614K
20260414T12Z_MSC_GDPS_TotalCloudCover_Sfc_LatLon0.15_PT010H.grib2 2026-04-14 15:56 830K
20260414T12Z_MSC_GDPS_UVIndex-ClearSky_Sfc_LatLon0.15_PT010H.grib2 2026-04-14 16:54 1.0M
20260414T12Z_MSC_GDPS_UVIndex_Sfc_LatLon0.15_PT010H.grib2 2026-04-14 16:54 1.5M
20260414T12Z_MSC_GDPS_UpwardLongwaveRadiationFlux_NTAtm_LatLon0.15_PT010H.grib2 2026-04-14 15:56 1.0M
20260414T12Z_MSC_GDPS_WindDir_AGL-10m_LatLon0.15_PT010H.grib2 2026-04-14 15:56 1.3M
20260414T12Z_MSC_GDPS_WindDir_AGL-120m_LatLon0.15_PT010H.grib2 2026-04-14 15:56 1.4M
20260414T12Z_MSC_GDPS_WindDir_AGL-40m_LatLon0.15_PT010H.grib2 2026-04-14 15:56 1.4M
20260414T12Z_MSC_GDPS_WindDir_AGL-80m_LatLon0.15_PT010H.grib2 2026-04-14 15:56 1.4M
20260414T12Z_MSC_GDPS_WindDir_IsbL-0700_LatLon0.15_PT010H.grib2 2026-04-14 15:56 1.6M
20260414T12Z_MSC_GDPS_WindGust-Max_AGL-10m_LatLon0.15_PT010H.grib2 2026-04-14 15:56 2.2M
20260414T12Z_MSC_GDPS_WindGust-Min_AGL-10m_LatLon0.15_PT010H.grib2 2026-04-14 15:56 2.2M
20260414T12Z_MSC_GDPS_WindGust_AGL-10m_LatLon0.15_PT010H.grib2 2026-04-14 15:56 2.2M
20260414T12Z_MSC_GDPS_WindSpeed_AGL-10m_LatLon0.15_PT010H.grib2 2026-04-14 15:56 1.1M
20260414T12Z_MSC_GDPS_WindSpeed_AGL-120m_LatLon0.15_PT010H.grib2 2026-04-14 15:56 1.3M
20260414T12Z_MSC_GDPS_WindSpeed_AGL-40m_LatLon0.15_PT010H.grib2 2026-04-14 15:56 1.2M
20260414T12Z_MSC_GDPS_WindSpeed_AGL-80m_LatLon0.15_PT010H.grib2 2026-04-14 15:56 1.3M
20260414T12Z_MSC_GDPS_WindSpeed_IsbL-0700_LatLon0.15_PT010H.grib2 2026-04-14 15:56 1.5M
20260414T12Z_MSC_GDPS_WindU_AGL-10m_LatLon0.15_PT010H.grib2 2026-04-14 15:56 1.3M
20260414T12Z_MSC_GDPS_WindU_AGL-120m_LatLon0.15_PT010H.grib2 2026-04-14 15:56 1.0M
20260414T12Z_MSC_GDPS_WindU_AGL-40m_LatLon0.15_PT010H.grib2 2026-04-14 15:56 1.0M
20260414T12Z_MSC_GDPS_WindU_AGL-80m_LatLon0.15_PT010H.grib2 2026-04-14 15:56 1.0M
20260414T12Z_MSC_GDPS_WindU_IsbL-0700_LatLon0.15_PT010H.grib2 2026-04-14 15:56 1.2M
20260414T12Z_MSC_GDPS_WindV_AGL-10m_LatLon0.15_PT010H.grib2 2026-04-14 15:56 1.3M
20260414T12Z_MSC_GDPS_WindV_AGL-120m_LatLon0.15_PT010H.grib2 2026-04-14 15:56 1.0M
20260414T12Z_MSC_GDPS_WindV_AGL-40m_LatLon0.15_PT010H.grib2 2026-04-14 15:56 1.0M
20260414T12Z_MSC_GDPS_WindV_AGL-80m_LatLon0.15_PT010H.grib2 2026-04-14 15:56 1.0M
20260414T12Z_MSC_GDPS_WindV_IsbL-0700_LatLon0.15_PT010H.grib2 2026-04-14 15:56 1.2M